| time (UTC) | temp C | wind direction | speed KPH | gust KPH | rain 1hr cm | rain 24hr cm | rain mn cm | humidity % | barometer mb |
| 20260507155809 | 15 | 231 | 20.9 | 33.8 | 0.00 | 0.00 | 0.00 | 61 | 1017.7 |
| 20260507155044 | 14 | 265 | 20.9 | 35.4 | 0.00 | 0.00 | 0.00 | 61 | 1017.8 |
| 20260507154515 | 14 | 246 | 20.9 | 35.4 | 0.00 | 0.00 | 0.00 | 61 | 1017.8 |
| 20260507154013 | 14 | 220 | 20.9 | 37.0 | 0.00 | 0.00 | 0.00 | 62 | 1017.9 |
| 20260507153512 | 14 | 243 | 17.7 | 37.0 | 0.00 | 0.00 | 0.00 | 62 | 1018.0 |
| 20260507152959 | 14 | 223 | 17.7 | 35.4 | 0.00 | 0.00 | 0.00 | 62 | 1018.0 |
| 20260507152459 | 14 | 205 | 17.7 | 35.4 | 0.00 | 0.00 | 0.00 | 62 | 1018.1 |
| 20260507151932 | 14 | 227 | 14.5 | 29.0 | 0.00 | 0.00 | 0.00 | 62 | 1018.2 |
| 20260507151432 | 14 | 223 | 12.9 | 25.7 | 0.00 | 0.00 | 0.00 | 66 | 1018.2 |
| 20260507150919 | 13 | 240 | 14.5 | 25.7 | 0.00 | 0.00 | 0.00 | 66 | 1018.2 |
| 20260507150419 | 13 | 250 | 14.5 | 25.7 | 0.00 | 0.00 | 0.00 | 65 | 1018.2 |
| 20260507145854 | 13 | 258 | 12.9 | 25.7 | 0.00 | 0.00 | 0.00 | 66 | 1018.3 |
| 20260507145612 | 13 | 261 | 12.9 | 25.7 | 0.00 | 0.00 | 0.00 | 66 | 1018.4 |
| 20260507144849 | 13 | 231 | 14.5 | 29.0 | 0.00 | 0.00 | 0.00 | 67 | 1018.4 |
| 20260507144345 | 13 | 267 | 17.7 | 29.0 | 0.00 | 0.00 | 0.00 | 66 | 1018.5 |
| 20260507143844 | 13 | 263 | 14.5 | 27.4 | 0.00 | 0.00 | 0.00 | 68 | 1018.5 |
| 20260507143317 | 13 | 264 | 11.3 | 22.5 | 0.00 | 0.00 | 0.00 | 68 | 1018.5 |
| 20260507142749 | 12 | 266 | 9.7 | 22.5 | 0.00 | 0.00 | 0.00 | 70 | 1018.6 |
| 20260507142510 | 12 | 227 | 9.7 | 22.5 | 0.00 | 0.00 | 0.00 | 71 | 1018.5 |
| 20260507141746 | 12 | 215 | 11.3 | 22.5 | 0.00 | 0.00 | 0.00 | 73 | 1018.6 |
| 20260507141218 | 12 | 252 | 6.4 | 22.5 | 0.00 | 0.00 | 0.00 | 72 | 1018.6 |
| 20260507140936 | 11 | 229 | 3.2 | 11.3 | 0.00 | 0.00 | 0.00 | 75 | 1018.7 |
| 20260507140213 | 11 | 259 | 1.6 | 8.0 | 0.00 | 0.00 | 0.00 | 77 | 1018.7 |
| 20260507135645 | 11 | 238 | 1.6 | 6.4 | 0.00 | 0.00 | 0.00 | 78 | 1018.8 |
| 20260507135142 | 11 | 213 | 1.6 | 8.0 | 0.00 | 0.00 | 0.00 | 79 | 1018.8 |
| 20260507134614 | 11 | 249 | 1.6 | 11.3 | 0.00 | 0.00 | 0.00 | 80 | 1018.8 |
| 20260507134048 | 10 | 239 | 1.6 | 11.3 | 0.00 | 0.00 | 0.00 | 81 | 1018.8 |
| 20260507133548 | 10 | 235 | 1.6 | 3.2 | 0.00 | 0.00 | 0.00 | 82 | 1018.9 |
| 20260507133043 | 10 | 238 | 1.6 | 3.2 | 0.00 | 0.00 | 0.00 | 82 | 1018.9 |
| 20260507132544 | 10 | 246 | 1.6 | 8.0 | 0.00 | 0.00 | 0.00 | 83 | 1019.0 |
| 20260507132015 | 10 | 222 | 1.6 | 8.0 | 0.00 | 0.00 | 0.00 | 83 | 1019.0 |
| 20260507131514 | 9 | 231 | 1.6 | 8.0 | 0.00 | 0.00 | 0.00 | 84 | 1019.0 |
| 20260507131209 | 9 | 234 | 1.6 | 8.0 | 0.00 | 0.00 | 0.00 | 84 | 1018.9 |
| 20260507130443 | 8 | 213 | 1.6 | 3.2 | 0.00 | 0.00 | 0.00 | 85 | 1019.0 |
| 20260507125941 | 8 | 218 | 1.6 | 3.2 | 0.00 | 0.00 | 0.00 | 85 | 1019.0 |
| 20260507125417 | 8 | 214 | 1.6 | 3.2 | 0.00 | 0.00 | 0.00 | 85 | 1019.0 |
| 20260507124917 | 8 | 221 | 1.6 | 3.2 | 0.00 | 0.00 | 0.00 | 86 | 1019.0 |
| 20260507124417 | 8 | 217 | 1.6 | 1.6 | 0.00 | 0.00 | 0.00 | 86 | 1018.9 |
| 20260507123900 | 8 | 223 | 1.6 | 6.4 | 0.00 | 0.00 | 0.00 | 86 | 1018.8 |
| 20260507123402 | 8 | 221 | 1.6 | 6.4 | 0.00 | 0.00 | 0.00 | 86 | 1018.8 |
| 20260507122838 | 8 | 212 | 0.0 | 1.6 | 0.00 | 0.00 | 0.00 | 86 | 1018.9 |
| 20260507122329 | 7 | 213 | 0.0 | 1.6 | 0.00 | 0.00 | 0.00 | 86 | 1019.0 |
| 20260507121827 | 7 | 221 | 0.0 | 1.6 | 0.00 | 0.00 | 0.00 | 86 | 1019.0 |
| 20260507121325 | 7 | 221 | 0.0 | 1.6 | 0.00 | 0.00 | 0.00 | 86 | 1018.9 |
| 20260507120823 | 7 | 221 | 0.0 | 3.2 | 0.00 | 0.00 | 0.00 | 86 | 1018.9 |
| 20260507120326 | 7 | 221 | 0.0 | 3.2 | 0.00 | 0.00 | 0.00 | 86 | 1018.8 |
| 20260507115803 | 7 | 221 | 0.0 | 3.2 | 0.00 | 0.00 | 0.00 | 86 | 1018.7 |
| 20260507115246 | 7 | 221 | 0.0 | 3.2 | 0.00 | 0.00 | 0.00 | 86 | 1018.7 |
| 20260507114748 | 7 | 217 | 0.0 | 3.2 | 0.00 | 0.00 | 0.00 | 86 | 1018.6 |
| 20260507114229 | 7 | 232 | 1.6 | 3.2 | 0.00 | 0.00 | 0.00 | 86 | 1018.5 |
| 20260507113725 | 7 | 230 | 1.6 | 3.2 | 0.00 | 0.00 | 0.00 | 86 | 1018.5 |
| 20260507113443 | 7 | 230 | 1.6 | 3.2 | 0.00 | 0.00 | 0.00 | 85 | 1018.5 |
| 20260507112722 | 7 | 230 | 1.6 | 4.8 | 0.00 | 0.00 | 0.00 | 85 | 1018.6 |
| 20260507112223 | 7 | 230 | 3.2 | 4.8 | 0.00 | 0.00 | 0.00 | 85 | 1018.6 |
| 20260507111719 | 7 | 230 | 1.6 | 4.8 | 0.00 | 0.00 | 0.00 | 85 | 1018.5 |
| 20260507111220 | 7 | 230 | 1.6 | 3.2 | 0.00 | 0.00 | 0.00 | 85 | 1018.4 |
| 20260507110655 | 7 | 230 | 1.6 | 3.2 | 0.00 | 0.00 | 0.00 | 84 | 1018.4 |
| 20260507110131 | 7 | 230 | 1.6 | 3.2 | 0.00 | 0.00 | 0.00 | 84 | 1018.5 |
| 20260507105626 | 7 | 230 | 0.0 | 3.2 | 0.00 | 0.00 | 0.00 | 84 | 1018.5 |
| 20260507105125 | 7 | 235 | 0.0 | 3.2 | 0.00 | 0.00 | 0.00 | 84 | 1018.5 |
| 20260507104625 | 7 | 240 | 0.0 | 3.2 | 0.00 | 0.00 | 0.00 | 83 | 1018.5 |
| 20260507104123 | 8 | 244 | 0.0 | 3.2 | 0.00 | 0.00 | 0.00 | 83 | 1018.6 |
| 20260507103623 | 8 | 251 | 0.0 | 3.2 | 0.00 | 0.00 | 0.00 | 82 | 1018.6 |
| 20260507103055 | 8 | 260 | 1.6 | 3.2 | 0.00 | 0.00 | 0.00 | 82 | 1018.6 |
| 20260507102530 | 8 | 267 | 1.6 | 3.2 | 0.00 | 0.00 | 0.00 | 81 | 1018.6 |
| 20260507102003 | 8 | 267 | 1.6 | 3.2 | 0.00 | 0.00 | 0.00 | 81 | 1018.7 |
| 20260507101430 | 8 | 272 | 1.6 | 3.2 | 0.00 | 0.00 | 0.00 | 81 | 1018.7 |
| 20260507100904 | 8 | 263 | 1.6 | 1.6 | 0.00 | 0.00 | 0.00 | 81 | 1018.8 |
| 20260507100339 | 8 | 267 | 1.6 | 1.6 | 0.00 | 0.00 | 0.00 | 81 | 1018.9 |
| 20260507095813 | 8 | 267 | 1.6 | 3.2 | 0.00 | 0.00 | 0.00 | 81 | 1018.9 |
| 20260507095246 | 8 | 278 | 1.6 | 3.2 | 0.00 | 0.00 | 0.00 | 80 | 1019.0 |
| 20260507094943 | 8 | 279 | 1.6 | 3.2 | 0.00 | 0.00 | 0.00 | 80 | 1019.0 |
| 20260507094155 | 8 | 282 | 0.0 | 3.2 | 0.00 | 0.00 | 0.00 | 80 | 1019.0 |
| 20260507093648 | 8 | 269 | 0.0 | 1.6 | 0.00 | 0.00 | 0.00 | 81 | 1019.1 |
| 20260507093147 | 8 | 273 | 0.0 | 0.0 | 0.00 | 0.00 | 0.00 | 80 | 1018.9 |
| 20260507093108 | 9 | 273 | 0.0 | 0.0 | 0.00 | 0.00 | 0.00 | 80 | 1019.0 |
| 20260507092052 | 9 | 273 | 0.0 | 0.0 | 0.00 | 0.00 | 0.00 | 80 | 1018.9 |
| 20260507091550 | 9 | 273 | 0.0 | 0.0 | 0.00 | 0.00 | 0.00 | 80 | 1018.9 |
| 20260507091042 | 9 | 273 | 0.0 | 0.0 | 0.00 | 0.00 | 0.00 | 79 | 1019.0 |
| 20260507090511 | 9 | 273 | 0.0 | 0.0 | 0.00 | 0.00 | 0.00 | 79 | 1018.9 |
| 20260507090231 | 10 | 273 | 0.0 | 0.0 | 0.00 | 0.00 | 0.00 | 78 | 1018.9 |
| 20260507085506 | 10 | 273 | 0.0 | 0.0 | 0.00 | 0.00 | 0.00 | 77 | 1019.0 |
| 20260507085005 | 10 | 273 | 0.0 | 0.0 | 0.00 | 0.00 | 0.00 | 77 | 1019.0 |
| 20260507084439 | 10 | 273 | 0.0 | 1.6 | 0.00 | 0.00 | 0.00 | 77 | 1019.0 |
| 20260507083913 | 10 | 273 | 0.0 | 1.6 | 0.00 | 0.00 | 0.00 | 78 | 1019.1 |
| 20260507083347 | 10 | 273 | 0.0 | 1.6 | 0.00 | 0.03 | 0.00 | 78 | 1019.1 |
| 20260507082821 | 10 | 273 | 0.0 | 1.6 | 0.00 | 0.03 | 0.00 | 79 | 1019.1 |
| 20260507082514 | 9 | 273 | 0.0 | 1.6 | 0.00 | 0.05 | 0.00 | 79 | 1019.3 |
| 20260507081750 | 9 | 273 | 0.0 | 1.6 | 0.00 | 0.05 | 0.00 | 80 | 1019.2 |
| 20260507081222 | 9 | 291 | 0.0 | 1.6 | 0.00 | 0.08 | 0.00 | 80 | 1019.3 |
| 20260507080658 | 9 | 308 | 0.0 | 1.6 | 0.00 | 0.08 | 0.00 | 81 | 1019.3 |
| 20260507080354 | 9 | 318 | 1.6 | 3.2 | 0.00 | 0.08 | 0.00 | 81 | 1019.4 |
| 20260507075627 | 9 | 335 | 1.6 | 3.2 | 0.00 | 0.08 | 0.00 | 81 | 1019.3 |
| 20260507075102 | 9 | 333 | 1.6 | 1.6 | 0.00 | 0.08 | 0.00 | 82 | 1019.3 |
| 20260507074534 | 9 | 336 | 1.6 | 1.6 | 0.00 | 0.08 | 0.00 | 81 | 1019.3 |
| 20260507074032 | 10 | 328 | 0.0 | 1.6 | 0.00 | 0.08 | 0.00 | 81 | 1019.4 |
| 20260507073529 | 10 | 315 | 0.0 | 1.6 | 0.00 | 0.08 | 0.00 | 81 | 1019.4 |
| 20260507073249 | 9 | 303 | 0.0 | 1.6 | 0.00 | 0.08 | 0.00 | 81 | 1019.4 |
| 20260507072725 | 9 | 298 | 0.0 | 1.6 | 0.00 | 0.08 | 0.00 | 82 | 1019.3 |
| 20260507071959 | 9 | 288 | 0.0 | 3.2 | 0.00 | 0.10 | 0.00 | 82 | 1019.5 |
| 20260507071432 | 10 | 273 | 0.0 | 1.6 | 0.00 | 0.10 | 0.00 | 81 | 1019.5 |
| 20260507070904 | 10 | 273 | 0.0 | 3.2 | 0.00 | 0.10 | 0.00 | 81 | 1019.5 |
| 20260507070401 | 10 | 273 | 1.6 | 3.2 | 0.00 | 0.13 | 0.00 | 81 | 1019.6 |
| 20260507065833 | 10 | 265 | 1.6 | 1.6 | 0.00 | 0.13 | 0.00 | 81 | 1019.8 |
| 20260507065309 | 10 | 265 | 1.6 | 3.2 | 0.00 | 0.13 | 0.00 | 81 | 1019.8 |
| 20260507065005 | 10 | 257 | 1.6 | 3.2 | 0.00 | 0.13 | 0.00 | 80 | 1019.7 |
| 20260507064236 | 10 | 229 | 1.6 | 3.2 | 0.00 | 0.13 | 0.00 | 79 | 1019.6 |
| 20260507063707 | 10 | 227 | 1.6 | 3.2 | 0.00 | 0.13 | 0.00 | 78 | 1019.5 |
| 20260507063140 | 10 | 232 | 0.0 | 3.2 | 0.00 | 0.15 | 0.00 | 78 | 1019.5 |
| 20260507062638 | 10 | 230 | 1.6 | 4.8 | 0.00 | 0.15 | 0.00 | 78 | 1019.6 |
| 20260507062137 | 10 | 221 | 1.6 | 4.8 | 0.00 | 0.18 | 0.00 | 79 | 1019.5 |
| 20260507061608 | 10 | 217 | 1.6 | 4.8 | 0.00 | 0.18 | 0.00 | 79 | 1019.4 |
| 20260507061105 | 10 | 213 | 1.6 | 4.8 | 0.00 | 0.18 | 0.00 | 79 | 1019.6 |
| 20260507060541 | 10 | 222 | 0.0 | 3.2 | 0.00 | 0.18 | 0.00 | 80 | 1019.7 |
| 20260507060015 | 10 | 221 | 0.0 | 1.6 | 0.00 | 0.18 | 0.00 | 80 | 1019.8 |
| 20260507055508 | 10 | 221 | 0.0 | 1.6 | 0.00 | 0.18 | 0.00 | 80 | 1019.8 |
| 20260507055006 | 10 | 221 | 0.0 | 1.6 | 0.00 | 0.18 | 0.00 | 80 | 1019.8 |
| 20260507054440 | 10 | 217 | 0.0 | 1.6 | 0.00 | 0.18 | 0.00 | 80 | 1019.8 |
| 20260507053938 | 10 | 217 | 0.0 | 1.6 | 0.00 | 0.18 | 0.00 | 80 | 1019.7 |
| 20260507053410 | 10 | 216 | 0.0 | 1.6 | 0.00 | 0.18 | 0.00 | 81 | 1019.7 |
| 20260507052908 | 10 | 216 | 0.0 | 0.0 | 0.00 | 0.18 | 0.00 | 81 | 1019.7 |
| 20260507052411 | 9 | 216 | 0.0 | 0.0 | 0.00 | 0.18 | 0.00 | 82 | 1019.7 |
| 20260507051847 | 9 | 216 | 0.0 | 0.0 | 0.00 | 0.18 | 0.00 | 82 | 1019.7 |
| 20260507051347 | 9 | 216 | 0.0 | 1.6 | 0.00 | 0.18 | 0.00 | 81 | 1019.6 |
| 20260507050841 | 9 | 216 | 0.0 | 1.6 | 0.00 | 0.18 | 0.00 | 82 | 1019.7 |
| 20260507050341 | 9 | 212 | 0.0 | 3.2 | 0.00 | 0.18 | 0.00 | 81 | 1019.7 |
| 20260507050059 | 10 | 202 | 0.0 | 3.2 | 0.00 | 0.18 | 0.18 | 80 | 1019.7 |
| 20260507045332 | 10 | 198 | 0.0 | 1.6 | 0.00 | 0.18 | 0.18 | 79 | 1019.8 |
| 20260507044807 | 10 | 72 | 0.0 | 0.0 | 0.00 | 0.18 | 0.18 | 79 | 1019.6 |
| 20260507044725 | 10 | 72 | 0.0 | 1.6 | 0.00 | 0.18 | 0.18 | 78 | 1019.5 |
| 20260507043717 | 10 | 72 | 0.0 | 1.6 | 0.00 | 0.18 | 0.18 | 78 | 1019.7 |
| 20260507043151 | 10 | 72 | 0.0 | 1.6 | 0.00 | 0.18 | 0.18 | 77 | 1019.6 |
| 20260507042646 | 10 | 72 | 0.0 | 1.6 | 0.00 | 0.18 | 0.18 | 75 | 1019.7 |
| 20260507042144 | 10 | 72 | 0.0 | 0.0 | 0.00 | 0.18 | 0.18 | 76 | 1019.7 |
| 20260507041620 | 10 | 72 | 0.0 | 0.0 | 0.00 | 0.18 | 0.18 | 74 | 1019.6 |
| 20260507041106 | 10 | 72 | 0.0 | 0.0 | 0.00 | 0.18 | 0.18 | 73 | 1019.7 |
| 20260507040604 | 11 | 72 | 0.0 | 0.0 | 0.00 | 0.18 | 0.18 | 73 | 1019.7 |
| 20260507040107 | 11 | 72 | 0.0 | 0.0 | 0.00 | 0.18 | 0.18 | 73 | 1019.8 |
| 20260507035602 | 11 | 72 | 0.0 | 0.0 | 0.00 | 0.18 | 0.18 | 73 | 1019.8 |
| 20260507035101 | 11 | 72 | 0.0 | 1.6 | 0.00 | 0.18 | 0.18 | 73 | 1019.9 |
| 20260507034532 | 11 | 72 | 0.0 | 1.6 | 0.00 | 0.18 | 0.18 | 72 | 1019.8 |
| 20260507034030 | 11 | 72 | 0.0 | 1.6 | 0.00 | 0.18 | 0.18 | 70 | 1019.8 |
| 20260507033506 | 12 | 49 | 0.0 | 1.6 | 0.00 | 0.18 | 0.18 | 64 | 1019.8 |
| 20260507032937 | 12 | 46 | 0.0 | 1.6 | 0.00 | 0.18 | 0.18 | 63 | 1019.7 |
| 20260507032410 | 12 | 42 | 0.0 | 1.6 | 0.00 | 0.18 | 0.18 | 63 | 1019.8 |
| 20260507031850 | 12 | 36 | 0.0 | 1.6 | 0.00 | 0.18 | 0.18 | 63 | 1019.8 |
| 20260507031350 | 12 | 46 | 0.0 | 1.6 | 0.00 | 0.18 | 0.18 | 63 | 1019.8 |
| 20260507030848 | 12 | 28 | 0.0 | 1.6 | 0.00 | 0.18 | 0.18 | 63 | 1019.7 |
| 20260507030616 | 12 | 42 | 0.0 | 1.6 | 0.00 | 0.18 | 0.18 | 63 | 1019.7 |
| 20260507025820 | 12 | 42 | 0.0 | 1.6 | 0.00 | 0.18 | 0.18 | 63 | 1019.7 |
| 20260507025318 | 12 | 15 | 0.0 | 1.6 | 0.00 | 0.18 | 0.18 | 63 | 1019.7 |
| 20260507025008 | 12 | 10 | 0.0 | 1.6 | 0.00 | 0.18 | 0.18 | 63 | 1019.7 |
| 20260507024250 | 12 | 32 | 0.0 | 1.6 | 0.00 | 0.18 | 0.18 | 62 | 1019.6 |
| 20260507023740 | 12 | 55 | 0.0 | 1.6 | 0.00 | 0.18 | 0.18 | 63 | 1019.4 |
| 20260507023239 | 12 | 32 | 0.0 | 1.6 | 0.00 | 0.18 | 0.18 | 62 | 1019.6 |
| 20260507022710 | 12 | 9 | 0.0 | 1.6 | 0.00 | 0.18 | 0.18 | 61 | 1019.6 |
| 20260507022208 | 12 | 25 | 0.0 | 1.6 | 0.00 | 0.18 | 0.18 | 61 | 1019.5 |
| 20260507021640 | 12 | 30 | 0.0 | 1.6 | 0.00 | 0.18 | 0.18 | 60 | 1019.4 |
| 20260507021134 | 12 | 5 | 0.0 | 1.6 | 0.00 | 0.18 | 0.18 | 60 | 1019.4 |
| 20260507020632 | 12 | 26 | 0.0 | 1.6 | 0.00 | 0.18 | 0.18 | 60 | 1019.1 |
| 20260507020130 | 12 | 17 | 0.0 | 1.6 | 0.00 | 0.18 | 0.18 | 61 | 1019.1 |
| 20260507015626 | 12 | 26 | 0.0 | 1.6 | 0.00 | 0.18 | 0.18 | 61 | 1019.0 |
| 20260507015125 | 12 | 26 | 0.0 | 1.6 | 0.00 | 0.18 | 0.18 | 62 | 1018.8 |
| 20260507014555 | 12 | 36 | 0.0 | 1.6 | 0.00 | 0.18 | 0.18 | 61 | 1018.8 |
| 20260507014055 | 12 | 22 | 0.0 | 1.6 | 0.00 | 0.18 | 0.18 | 61 | 1018.7 |
| 20260507013526 | 13 | 23 | 0.0 | 1.6 | 0.00 | 0.18 | 0.18 | 61 | 1018.6 |
| 20260507013024 | 13 | 22 | 0.0 | 1.6 | 0.00 | 0.18 | 0.18 | 61 | 1018.6 |
| 20260507012456 | 13 | 24 | 0.0 | 1.6 | 0.00 | 0.18 | 0.18 | 60 | 1018.6 |
| 20260507011952 | 13 | 22 | 0.0 | 1.6 | 0.00 | 0.18 | 0.18 | 59 | 1018.5 |
| 20260507011712 | 13 | 26 | 0.0 | 1.6 | 0.00 | 0.18 | 0.18 | 59 | 1018.6 |
| 20260507010924 | 13 | 13 | 0.0 | 1.6 | 0.00 | 0.18 | 0.18 | 58 | 1018.6 |
| 20260507010411 | 13 | 28 | 0.0 | 1.6 | 0.00 | 0.18 | 0.18 | 57 | 1018.6 |
| 20260507005915 | 13 | 44 | 0.0 | 1.6 | 0.00 | 0.18 | 0.18 | 57 | 1018.5 |
| 20260507005347 | 13 | 55 | 0.0 | 1.6 | 0.00 | 0.18 | 0.18 | 56 | 1018.4 |
| 20260507004840 | 13 | 23 | 0.0 | 1.6 | 0.00 | 0.18 | 0.18 | 56 | 1018.4 |
| 20260507004314 | 13 | 0 | 0.0 | 3.2 | 0.00 | 0.18 | 0.18 | 55 | 1018.5 |
| 20260507003812 | 13 | 9 | 1.6 | 3.2 | 0.00 | 0.18 | 0.18 | 55 | 1018.5 |
| 20260507003311 | 13 | 0 | 1.6 | 3.2 | 0.00 | 0.18 | 0.18 | 54 | 1018.4 |
| 20260507002743 | 13 | 355 | 1.6 | 3.2 | 0.00 | 0.18 | 0.18 | 54 | 1018.5 |
| 20260507002244 | 14 | 0 | 1.6 | 4.8 | 0.00 | 0.18 | 0.18 | 53 | 1018.5 |
| 20260507001951 | 14 | 347 | 1.6 | 4.8 | 0.00 | 0.18 | 0.18 | 52 | 1018.4 |
| 20260507001229 | 14 | 336 | 1.6 | 3.2 | 0.00 | 0.18 | 0.18 | 51 | 1018.4 |
| 20260507000726 | 15 | 335 | 1.6 | 12.9 | 0.00 | 0.18 | 0.18 | 51 | 1018.3 |
| 20260507000714 | 15 | 9 | 3.2 | 16.1 | 0.00 | 0.18 | 0.18 | 50 | 1018.2 |
| 20260506235720 | 15 | 51 | 3.2 | 16.1 | 0.00 | 0.18 | 0.18 | 51 | 1018.2 |
| 20260506235215 | 15 | 19 | 4.8 | 16.1 | 0.00 | 0.18 | 0.18 | 50 | 1018.1 |
| 20260506234907 | 14 | 50 | 4.8 | 19.3 | 0.00 | 0.18 | 0.18 | 51 | 1018.2 |
| 20260506234121 | 15 | 34 | 3.2 | 12.9 | 0.00 | 0.18 | 0.18 | 52 | 1018.2 |
| 20260506233618 | 14 | 28 | 3.2 | 16.1 | 0.00 | 0.18 | 0.18 | 52 | 1018.1 |
| 20260506233316 | 14 | 61 | 3.2 | 16.1 | 0.00 | 0.18 | 0.18 | 52 | 1018.2 |
| 20260506232526 | 14 | 13 | 4.8 | 17.7 | 0.00 | 0.18 | 0.18 | 54 | 1018.2 |
| 20260506232002 | 14 | 46 | 6.4 | 17.7 | 0.00 | 0.18 | 0.18 | 52 | 1018.2 |
| 20260506231501 | 14 | 47 | 4.8 | 17.7 | 0.00 | 0.18 | 0.18 | 53 | 1018.2 |
| 20260506230938 | 14 | 30 | 6.4 | 19.3 | 0.00 | 0.18 | 0.18 | 53 | 1018.2 |
| 20260506230437 | 14 | 44 | 4.8 | 19.3 | 0.00 | 0.18 | 0.18 | 51 | 1018.2 |
| 20260506225912 | 15 | 23 | 3.2 | 12.9 | 0.00 | 0.18 | 0.18 | 50 | 1018.1 |
| 20260506225413 | 15 | 346 | 3.2 | 14.5 | 0.00 | 0.18 | 0.18 | 49 | 1018.2 |
| 20260506225109 | 14 | 346 | 3.2 | 14.5 | 0.00 | 0.18 | 0.18 | 50 | 1018.1 |
| 20260506224333 | 14 | 323 | 4.8 | 19.3 | 0.00 | 0.18 | 0.18 | 51 | 1018.0 |
| 20260506223833 | 15 | 57 | 4.8 | 19.3 | 0.00 | 0.18 | 0.18 | 49 | 1017.9 |
| 20260506223331 | 15 | 11 | 3.2 | 14.5 | 0.00 | 0.18 | 0.18 | 50 | 1017.9 |
| 20260506222834 | 14 | 355 | 3.2 | 17.7 | 0.00 | 0.18 | 0.18 | 48 | 1018.0 |
| 20260506222312 | 14 | 36 | 4.8 | 17.7 | 0.00 | 0.18 | 0.18 | 49 | 1018.0 |
| 20260506221812 | 15 | 71 | 6.4 | 17.7 | 0.00 | 0.18 | 0.18 | 48 | 1018.0 |
| 20260506221313 | 15 | 63 | 6.4 | 20.9 | 0.00 | 0.18 | 0.18 | 49 | 1018.1 |
| 20260506220813 | 15 | 55 | 4.8 | 20.9 | 0.00 | 0.18 | 0.18 | 49 | 1018.0 |
| 20260506220519 | 15 | 64 | 4.8 | 20.9 | 0.00 | 0.18 | 0.18 | 48 | 1017.9 |
| 20260506220011 | 15 | 63 | 4.8 | 20.9 | 0.00 | 0.20 | 0.18 | 47 | 1018.0 |
| 20260506215232 | 15 | 0 | 4.8 | 16.1 | 0.00 | 0.23 | 0.18 | 47 | 1018.1 |
| 20260506214727 | 15 | 355 | 4.8 | 14.5 | 0.00 | 0.23 | 0.18 | 48 | 1018.2 |
| 20260506214220 | 15 | 53 | 4.8 | 16.1 | 0.00 | 0.23 | 0.18 | 48 | 1018.1 |
| 20260506213947 | 15 | 11 | 6.4 | 17.7 | 0.00 | 0.23 | 0.18 | 48 | 1018.2 |
| 20260506213157 | 15 | 47 | 6.4 | 19.3 | 0.00 | 0.23 | 0.18 | 48 | 1018.3 |
| 20260506212633 | 15 | 355 | 4.8 | 17.7 | 0.00 | 0.23 | 0.18 | 49 | 1018.3 |
| 20260506212116 | 14 | 92 | 8.0 | 22.5 | 0.00 | 0.23 | 0.18 | 47 | 1018.2 |
| 20260506211605 | 14 | 40 | 8.0 | 22.5 | 0.00 | 0.23 | 0.18 | 48 | 1018.3 |
| 20260506211101 | 14 | 355 | 6.4 | 19.3 | 0.00 | 0.23 | 0.18 | 50 | 1018.4 |
| 20260506210601 | 14 | 112 | 6.4 | 19.3 | 0.00 | 0.23 | 0.18 | 49 | 1018.4 |
| 20260506205545 | 14 | 53 | 9.7 | 24.1 | 0.00 | 0.23 | 0.18 | 46 | 1018.6 |
| 20260506205308 | 15 | 55 | 8.0 | 22.5 | 0.00 | 0.23 | 0.18 | 48 | 1018.7 |
| 20260506204541 | 15 | 26 | 8.0 | 22.5 | 0.00 | 0.23 | 0.18 | 48 | 1018.8 |
| 20260506204259 | 14 | 93 | 9.7 | 19.3 | 0.00 | 0.23 | 0.18 | 51 | 1018.7 |
| 20260506203533 | 14 | 348 | 9.7 | 24.1 | 0.00 | 0.23 | 0.18 | 49 | 1018.8 |
| 20260506203029 | 14 | 63 | 6.4 | 24.1 | 0.00 | 0.23 | 0.18 | 49 | 1018.9 |
| 20260506202504 | 14 | 344 | 6.4 | 22.5 | 0.00 | 0.23 | 0.18 | 50 | 1019.0 |
| 20260506201938 | 14 | 49 | 8.0 | 22.5 | 0.00 | 0.23 | 0.18 | 52 | 1019.1 |
| 20260506201414 | 14 | 84 | 4.8 | 17.7 | 0.00 | 0.23 | 0.18 | 50 | 1019.1 |
| 20260506201132 | 14 | 46 | 4.8 | 16.1 | 0.00 | 0.23 | 0.18 | 51 | 1019.3 |
| 20260506200405 | 13 | 69 | 6.4 | 19.3 | 0.00 | 0.23 | 0.18 | 53 | 1019.3 |
| 20260506195840 | 13 | 71 | 8.0 | 22.5 | 0.00 | 0.23 | 0.18 | 50 | 1019.4 |
| 20260506195335 | 13 | 82 | 6.4 | 22.5 | 0.00 | 0.23 | 0.18 | 50 | 1019.4 |
| 20260506194831 | 13 | 112 | 8.0 | 20.9 | 0.00 | 0.23 | 0.18 | 49 | 1019.4 |
| 20260506194308 | 13 | 68 | 8.0 | 20.9 | 0.00 | 0.23 | 0.18 | 49 | 1019.6 |
| 20260506193739 | 13 | 44 | 9.7 | 22.5 | 0.00 | 0.23 | 0.18 | 51 | 1019.4 |
| 20260506193501 | 13 | 78 | 9.7 | 25.7 | 0.00 | 0.23 | 0.18 | 51 | 1019.4 |
| 20260506192733 | 13 | 96 | 9.7 | 25.7 | 0.00 | 0.23 | 0.18 | 50 | 1019.5 |
| 20260506192208 | 13 | 42 | 12.9 | 25.7 | 0.00 | 0.23 | 0.18 | 49 | 1019.5 |
| 20260506191704 | 13 | 48 | 9.7 | 25.7 | 0.00 | 0.23 | 0.18 | 49 | 1019.5 |
| 20260506191429 | 13 | 80 | 9.7 | 20.9 | 0.00 | 0.23 | 0.18 | 50 | 1019.4 |
| 20260506190658 | 13 | 70 | 8.0 | 20.9 | 0.00 | 0.23 | 0.18 | 50 | 1019.4 |
| 20260506190145 | 13 | 76 | 8.0 | 20.9 | 0.00 | 0.23 | 0.18 | 50 | 1019.4 |
| 20260506185915 | 13 | 20 | 11.3 | 20.9 | 0.00 | 0.23 | 0.18 | 52 | 1019.4 |
| 20260506185143 | 13 | 351 | 11.3 | 24.1 | 0.00 | 0.23 | 0.18 | 51 | 1019.4 |
| 20260506184906 | 13 | 70 | 8.0 | 24.1 | 0.00 | 0.23 | 0.18 | 52 | 1019.6 |
| 20260506184136 | 13 | 9 | 8.0 | 27.4 | 0.00 | 0.23 | 0.18 | 54 | 1019.6 |
| 20260506183607 | 13 | 355 | 8.0 | 27.4 | 0.00 | 0.23 | 0.18 | 51 | 1019.7 |
| 20260506183404 | 13 | 21 | 8.0 | 25.7 | 0.00 | 0.23 | 0.18 | 54 | 1019.6 |
| 20260506182056 | 13 | 59 | 4.8 | 20.9 | 0.00 | 0.23 | 0.18 | 56 | 1019.8 |
| 20260506181553 | 13 | 49 | 6.4 | 25.7 | 0.00 | 0.23 | 0.18 | 54 | 1019.9 |
| 20260506181057 | 13 | 57 | 4.8 | 25.7 | 0.00 | 0.23 | 0.18 | 53 | 1020.0 |
| 20260506180523 | 12 | 45 | 8.0 | 22.5 | 0.00 | 0.23 | 0.18 | 51 | 1019.9 |
| 20260506180020 | 12 | 46 | 8.0 | 22.5 | 0.00 | 0.23 | 0.18 | 50 | 1020.3 |
| 20260506175517 | 12 | 40 | 6.4 | 22.5 | 0.00 | 0.23 | 0.18 | 52 | 1020.3 |
| 20260506175014 | 12 | 63 | 9.7 | 27.4 | 0.00 | 0.23 | 0.18 | 57 | 1020.4 |
| 20260506174726 | 12 | 19 | 9.7 | 27.4 | 0.00 | 0.23 | 0.18 | 56 | 1020.3 |
| 20260506173937 | 12 | 55 | 8.0 | 25.7 | 0.00 | 0.23 | 0.18 | 58 | 1020.4 |
| 20260506173435 | 12 | 349 | 9.7 | 22.5 | 0.00 | 0.23 | 0.18 | 58 | 1020.4 |
| 20260506172923 | 12 | 40 | 9.7 | 22.5 | 0.00 | 0.23 | 0.18 | 59 | 1020.5 |
| 20260506172423 | 12 | 44 | 8.0 | 20.9 | 0.00 | 0.23 | 0.18 | 59 | 1020.4 |
| 20260506171900 | 12 | 42 | 8.0 | 20.9 | 0.00 | 0.23 | 0.18 | 58 | 1020.4 |
| 20260506171335 | 12 | 351 | 8.0 | 22.5 | 0.00 | 0.23 | 0.18 | 62 | 1020.5 |
| 20260506171054 | 12 | 32 | 9.7 | 22.5 | 0.00 | 0.23 | 0.18 | 61 | 1020.5 |
| 20260506170554 | 12 | 24 | 8.0 | 19.3 | 0.00 | 0.23 | 0.18 | 63 | 1020.5 |
| 20260506165833 | 12 | 51 | 6.4 | 20.9 | 0.00 | 0.23 | 0.18 | 61 | 1020.6 |
| 20260506165334 | 12 | 9 | 6.4 | 19.3 | 0.00 | 0.23 | 0.18 | 66 | 1020.5 |
| 20260506164805 | 11 | 74 | 9.7 | 22.5 | 0.00 | 0.23 | 0.18 | 64 | 1020.5 |
| 20260506164303 | 11 | 11 | 9.7 | 22.5 | 0.00 | 0.23 | 0.18 | 65 | 1020.0 |
| 20260506163738 | 11 | 0 | 9.7 | 25.7 | 0.00 | 0.23 | 0.18 | 68 | 1020.1 |
| 20260506163235 | 11 | 0 | 9.7 | 25.7 | 0.00 | 0.23 | 0.18 | 67 | 1020.4 |
| 20260506162736 | 11 | 345 | 6.4 | 22.5 | 0.00 | 0.23 | 0.18 | 69 | 1020.5 |
| 20260506162206 | 11 | 338 | 8.0 | 20.9 | 0.00 | 0.23 | 0.18 | 72 | 1020.4 |
| 20260506161637 | 10 | 343 | 8.0 | 20.9 | 0.00 | 0.23 | 0.18 | 70 | 1020.5 |
| 20260506161134 | 10 | 15 | 9.7 | 20.9 | 0.00 | 0.23 | 0.18 | 71 | 1020.5 |
| 20260506160607 | 10 | 0 | 8.0 | 19.3 | 0.00 | 0.23 | 0.18 | 72 | 1020.6 |
| 20260506160322 | 10 | 355 | 4.8 | 22.5 | 0.00 | 0.23 | 0.18 | 74 | 1020.6 |